LXFUN ELLX-ELLX

Flight info

Callsign LXFUN
Flight time 0h 39m
Altitude 2000
Route ELLX
Aircraft C172/L-VGDW/C

Departure

Time 2026-05-04 16:03
Airport Luxembourg-Findel International Airport (ELLX)

Arrival

Time 2026-05-04 16:42
Airport Luxembourg-Findel International Airport (ELLX)
Time Latitude Longitude Altitude Speed Heading
2026-05-04 15:56 49.62473 6.19829 1212 ft 0 kts 267°
2026-05-04 16:00 49.62464 6.19785 1210 ft 8 kts 226°
2026-05-04 16:00 49.62398 6.19760 1210 ft 12 kts 175°
2026-05-04 16:00 49.62340 6.19814 1212 ft 9 kts 134°
2026-05-04 16:01 49.62360 6.19914 1216 ft 13 kts 59°
2026-05-04 16:01 49.62421 6.20077 1220 ft 22 kts 59°
2026-05-04 16:01 49.62498 6.20285 1227 ft 23 kts 56°
2026-05-04 16:01 49.62561 6.20442 1233 ft 14 kts 105°
2026-05-04 16:02 49.62481 6.20530 1234 ft 16 kts 150°
2026-05-04 16:02 49.62395 6.20474 1231 ft 26 kts 240°
2026-05-04 16:02 49.61949 6.19281 1415 ft 77 kts 239°
2026-05-04 16:03 49.61675 6.18538 1580 ft 84 kts 235°
2026-05-04 16:03 49.61240 6.18010 1785 ft 81 kts 172°
2026-05-04 16:03 49.60762 6.18490 1952 ft 88 kts 134°
2026-05-04 16:03 49.60428 6.19294 1975 ft 93 kts 118°
2026-05-04 16:04 49.60341 6.20305 1982 ft 96 kts 96°
2026-05-04 16:04 49.60497 6.22351 1997 ft 102 kts 73°
2026-05-04 16:04 49.60889 6.23294 1991 ft 107 kts 54°
2026-05-04 16:05 49.61374 6.24153 2015 ft 107 kts 53°
2026-05-04 16:05 49.61914 6.24967 2005 ft 112 kts 39°
2026-05-04 16:05 49.63383 6.25033 1790 ft 100 kts 326°
2026-05-04 16:06 49.63684 6.24099 1469 ft 106 kts 258°
2026-05-04 16:06 49.62890 6.21808 1225 ft 71 kts 242°
2026-05-04 16:07 49.62539 6.20877 1286 ft 87 kts 239°
2026-05-04 16:07 49.61778 6.18382 1865 ft 95 kts 275°
2026-05-04 16:08 49.62216 6.17563 1996 ft 108 kts 316°
2026-05-04 16:08 49.63916 6.15165 1988 ft 105 kts 315°
2026-05-04 16:09 49.64988 6.13657 1990 ft 103 kts 315°
2026-05-04 16:09 49.66082 6.12109 1987 ft 109 kts 315°
2026-05-04 16:10 49.67204 6.10521 1991 ft 111 kts 315°
2026-05-04 16:11 49.68905 6.08122 1987 ft 109 kts 315°
2026-05-04 16:11 49.69470 6.07333 1985 ft 109 kts 315°
2026-05-04 16:12 49.71357 6.05289 1696 ft 131 kts
2026-05-04 16:12 49.73683 6.06866 1303 ft 117 kts 17°
2026-05-04 16:13 49.74632 6.08533 1069 ft 115 kts 56°
2026-05-04 16:13 49.75409 6.10511 1085 ft 107 kts 62°
2026-05-04 16:14 49.76699 6.10830 1072 ft 109 kts 334°
2026-05-04 16:14 49.76815 6.09437 1665 ft 85 kts 184°
2026-05-04 16:15 49.74979 6.11154 1971 ft 102 kts 150°
2026-05-04 16:16 49.73752 6.12323 1980 ft 97 kts 150°
2026-05-04 16:16 49.72080 6.13904 1993 ft 95 kts 151°
2026-05-04 16:17 49.70905 6.15018 2005 ft 102 kts 152°
2026-05-04 16:18 49.68971 6.16809 2000 ft 109 kts 153°
2026-05-04 16:18 49.68320 6.17396 2001 ft 107 kts 153°
2026-05-04 16:19 49.66314 6.18052 1984 ft 98 kts 180°
2026-05-04 16:19 49.64950 6.18075 1991 ft 100 kts 180°
2026-05-04 16:20 49.62850 6.18123 1988 ft 100 kts 180°
2026-05-04 16:20 49.61487 6.18145 1983 ft 96 kts 180°
2026-05-04 16:21 49.59504 6.18182 1983 ft 94 kts 180°
2026-05-04 16:22 49.58214 6.18220 1988 ft 90 kts 180°
2026-05-04 16:22 49.56286 6.18283 1995 ft 96 kts 180°
2026-05-04 16:23 49.54291 6.18326 2001 ft 95 kts 181°
2026-05-04 16:24 49.51577 6.18705 1791 ft 110 kts 158°
2026-05-04 16:25 49.50502 6.20391 1463 ft 113 kts 121°
2026-05-04 16:26 49.50911 6.25037 1259 ft 129 kts 54°
2026-05-04 16:26 49.50241 6.27413 1006 ft 108 kts 143°
2026-05-04 16:27 49.49546 6.29307 997 ft 108 kts 87°
2026-05-04 16:28 49.50369 6.31960 1096 ft 84 kts 133°
2026-05-04 16:28 49.50821 6.34425 939 ft 112 kts 43°
2026-05-04 16:29 49.52137 6.34644 899 ft 95 kts 250°
2026-05-04 16:30 49.53143 6.35024 1234 ft 94 kts 74°
2026-05-04 16:31 49.53358 6.37055 1482 ft 93 kts 117°
2026-05-04 16:31 49.54507 6.37021 1588 ft 120 kts 300°
2026-05-04 16:32 49.55832 6.33805 1992 ft 126 kts 300°
2026-05-04 16:33 49.56852 6.31459 2005 ft 135 kts 300°
2026-05-04 16:33 49.57816 6.29315 1982 ft 113 kts 301°
2026-05-04 16:34 49.58698 6.27440 1985 ft 106 kts 301°
2026-05-04 16:34 49.59128 6.26534 1990 ft 103 kts 301°
2026-05-04 16:35 49.60508 6.24048 2019 ft 101 kts 314°
2026-05-04 16:35 49.62334 6.25070 1989 ft 107 kts 19°
2026-05-04 16:36 49.63056 6.25094 1908 ft 103 kts 342°
2026-05-04 16:36 49.63537 6.23477 1612 ft 90 kts 237°
2026-05-04 16:37 49.62961 6.21990 1251 ft 71 kts 239°
2026-05-04 16:37 49.62741 6.21419 1226 ft 53 kts 240°
2026-05-04 16:37 49.62249 6.20051 1511 ft 77 kts 239°
2026-05-04 16:38 49.61719 6.18558 1860 ft 85 kts 230°
2026-05-04 16:39 49.60351 6.19301 1968 ft 99 kts 104°
2026-05-04 16:39 49.60346 6.21406 2016 ft 103 kts 82°
2026-05-04 16:40 49.61022 6.23406 2048 ft 106 kts 63°
2026-05-04 16:40 49.62054 6.25190 1988 ft 116 kts 37°
2026-05-04 16:41 49.63496 6.25014 1745 ft 109 kts 310°
2026-05-04 16:41 49.63021 6.22156 1249 ft 76 kts 240°
2026-05-04 16:42 49.62649 6.20910 1235 ft 20 kts 269°
2026-05-04 16:43 49.62695 6.20611 1237 ft 19 kts 221°
2026-05-04 16:43 49.62501 6.20286 1227 ft 25 kts 236°
2026-05-04 16:43 49.62407 6.20041 1219 ft 26 kts 240°
2026-05-04 16:44 49.62375 6.19707 1206 ft 0 kts 117°